owner,sensor,date,latitude,longitude,air_pressure(mBar),qcFlag 
COMPS,ioos:station:USF.COMPS:C10:1,2013-12-03T16:05:00Z,27.1690,-82.9260,1015.07,1111122 
COMPS,ioos:station:USF.COMPS:C10:1,2013-12-03T16:35:00Z,27.1690,-82.9260,1014.9,1111122 
COMPS,ioos:station:USF.COMPS:C10:1,2013-12-03T17:05:00Z,27.1690,-82.9260,1014.84,1111122 
COMPS,ioos:station:USF.COMPS:C10:1,2013-12-03T17:35:00Z,27.1690,-82.9260,1014.78,1111122 
COMPS,ioos:station:USF.COMPS:C10:1,2013-12-03T18:05:00Z,27.1690,-82.9260,1014.23,1111122 
COMPS,ioos:station:USF.COMPS:C10:1,2013-12-03T18:35:00Z,27.1690,-82.9260,1013.88,1111122 
COMPS,ioos:station:USF.COMPS:C10:1,2013-12-03T19:05:00Z,27.1690,-82.9260,1013.55,1111122 
COMPS,ioos:station:USF.COMPS:C10:1,2013-12-03T19:35:00Z,27.1690,-82.9260,1012.86,1111122 
COMPS,ioos:station:USF.COMPS:C10:1,2013-12-03T20:05:00Z,27.1690,-82.9260,1012.81,1111122 
COMPS,ioos:station:USF.COMPS:C10:1,2013-12-03T20:35:00Z,27.1690,-82.9260,1013.06,1111122 
COMPS,ioos:station:USF.COMPS:C10:1,2013-12-03T21:05:00Z,27.1690,-82.9260,1012.87,1111122 
COMPS,ioos:station:USF.COMPS:C10:1,2013-12-03T21:35:00Z,27.1690,-82.9260,1013.07,1111122 
COMPS,ioos:station:USF.COMPS:C10:1,2013-12-03T22:05:00Z,27.1690,-82.9260,1013.14,1111122 
COMPS,ioos:station:USF.COMPS:C10:1,2013-12-03T22:35:00Z,27.1690,-82.9260,1013.44,1111122 
COMPS,ioos:station:USF.COMPS:C10:1,2013-12-03T23:05:00Z,27.1690,-82.9260,1013.51,1111122 
COMPS,ioos:station:USF.COMPS:C10:1,2013-12-03T23:35:00Z,27.1690,-82.9260,1013.85,1111122 
COMPS,ioos:station:USF.COMPS:C10:1,2013-12-04T00:05:00Z,27.1690,-82.9260,1014.21,1111122 
COMPS,ioos:station:USF.COMPS:C10:1,2013-12-04T00:35:00Z,27.1690,-82.9260,1014.31,1111122 
COMPS,ioos:station:USF.COMPS:C10:1,2013-12-04T01:05:00Z,27.1690,-82.9260,1014.19,1111122 
COMPS,ioos:station:USF.COMPS:C10:1,2013-12-04T01:35:00Z,27.1690,-82.9260,1014.56,1111122 
COMPS,ioos:station:USF.COMPS:C10:1,2013-12-04T02:05:00Z,27.1690,-82.9260,1014.77,1111122 
COMPS,ioos:station:USF.COMPS:C10:1,2013-12-04T02:35:00Z,27.1690,-82.9260,1014.83,1111122 
COMPS,ioos:station:USF.COMPS:C10:1,2013-12-04T03:05:00Z,27.1690,-82.9260,1014.71,1111122 
COMPS,ioos:station:USF.COMPS:C10:1,2013-12-04T03:35:00Z,27.1690,-82.9260,1014.9,1111122 
COMPS,ioos:station:USF.COMPS:C10:1,2013-12-04T04:05:00Z,27.1690,-82.9260,1015.23,1111122 
COMPS,ioos:station:USF.COMPS:C10:1,2013-12-04T04:35:00Z,27.1690,-82.9260,1015.23,1111122 
COMPS,ioos:station:USF.COMPS:C10:1,2013-12-04T05:05:00Z,27.1690,-82.9260,1015.39,1111122 
COMPS,ioos:station:USF.COMPS:C10:1,2013-12-04T05:35:00Z,27.1690,-82.9260,1015.32,1111122 
COMPS,ioos:station:USF.COMPS:C10:1,2013-12-04T06:05:00Z,27.1690,-82.9260,1015.19,1111122 
COMPS,ioos:station:USF.COMPS:C10:1,2013-12-04T06:35:00Z,27.1690,-82.9260,1015.16,1111122 
COMPS,ioos:station:USF.COMPS:C10:1,2013-12-04T07:05:00Z,27.1690,-82.9260,1015.26,1111122 
COMPS,ioos:station:USF.COMPS:C10:1,2013-12-04T07:35:00Z,27.1690,-82.9260,1015.14,1111122 
COMPS,ioos:station:USF.COMPS:C10:1,2013-12-04T08:05:00Z,27.1690,-82.9260,1015.06,1111122 
COMPS,ioos:station:USF.COMPS:C10:1,2013-12-04T08:35:00Z,27.1690,-82.9260,1015.05,1111122 
COMPS,ioos:station:USF.COMPS:C10:1,2013-12-04T09:05:00Z,27.1690,-82.9260,1015.27,1111122 
COMPS,ioos:station:USF.COMPS:C10:1,2013-12-04T09:35:00Z,27.1690,-82.9260,1015.42,1111122 
COMPS,ioos:station:USF.COMPS:C10:1,2013-12-04T10:05:00Z,27.1690,-82.9260,1015.47,1111122 
COMPS,ioos:station:USF.COMPS:C10:1,2013-12-04T10:35:00Z,27.1690,-82.9260,1015.74,1111122 
COMPS,ioos:station:USF.COMPS:C10:1,2013-12-04T11:05:00Z,27.1690,-82.9260,1016.12,1111122 
COMPS,ioos:station:USF.COMPS:C10:1,2013-12-04T11:35:00Z,27.1690,-82.9260,1016.43,1111122 
COMPS,ioos:station:USF.COMPS:C10:1,2013-12-04T12:05:00Z,27.1690,-82.9260,1016.73,1111122 
COMPS,ioos:station:USF.COMPS:C10:1,2013-12-04T12:35:00Z,27.1690,-82.9260,1016.87,1111122 
COMPS,ioos:station:USF.COMPS:C10:1,2013-12-04T13:05:00Z,27.1690,-82.9260,1017.16,1111122 
COMPS,ioos:station:USF.COMPS:C10:1,2013-12-04T13:35:00Z,27.1690,-82.9260,1017.44,1111122 
COMPS,ioos:station:USF.COMPS:C10:1,2013-12-05T17:05:00Z,27.1690,-82.9260,1021.3,1111122 
COMPS,ioos:station:USF.COMPS:C10:1,2013-12-05T17:35:00Z,27.1690,-82.9260,1020.91,1111122 
COMPS,ioos:station:USF.COMPS:C10:1,2013-12-05T18:05:00Z,27.1690,-82.9260,1020.13,1111122 
COMPS,ioos:station:USF.COMPS:C10:1,2013-12-05T18:35:00Z,27.1690,-82.9260,1019.84,1111122 
COMPS,ioos:station:USF.COMPS:C10:1,2013-12-05T19:05:00Z,27.1690,-82.9260,1019.52,1111122 
COMPS,ioos:station:USF.COMPS:C10:1,2013-12-05T19:35:00Z,27.1690,-82.9260,1019.28,1111122 
COMPS,ioos:station:USF.COMPS:C10:1,2013-12-05T20:05:00Z,27.1690,-82.9260,1019.3,1111122 
COMPS,ioos:station:USF.COMPS:C10:1,2013-12-05T20:35:00Z,27.1690,-82.9260,1019.05,1111122 
COMPS,ioos:station:USF.COMPS:C10:1,2013-12-05T21:05:00Z,27.1690,-82.9260,1019.05,1111122 
COMPS,ioos:station:USF.COMPS:C10:1,2013-12-05T21:35:00Z,27.1690,-82.9260,1019.12,1111122 
COMPS,ioos:station:USF.COMPS:C10:1,2013-12-05T22:05:00Z,27.1690,-82.9260,1019.21,1111122 
COMPS,ioos:station:USF.COMPS:C10:1,2013-12-05T22:35:00Z,27.1690,-82.9260,1019.14,1111122 
COMPS,ioos:station:USF.COMPS:C10:1,2013-12-05T23:05:00Z,27.1690,-82.9260,1019.32,1111122 
COMPS,ioos:station:USF.COMPS:C10:1,2013-12-05T23:35:00Z,27.1690,-82.9260,1019.47,1111122 
COMPS,ioos:station:USF.COMPS:C10:1,2013-12-06T00:05:00Z,27.1690,-82.9260,1019.62,1111122 
COMPS,ioos:station:USF.COMPS:C10:1,2013-12-06T00:35:00Z,27.1690,-82.9260,1019.69,1111122 
COMPS,ioos:station:USF.COMPS:C10:1,2013-12-06T01:05:00Z,27.1690,-82.9260,1019.82,1111122 
COMPS,ioos:station:USF.COMPS:C10:1,2013-12-06T01:35:00Z,27.1690,-82.9260,1019.89,1111122 
COMPS,ioos:station:USF.COMPS:C10:1,2013-12-06T02:05:00Z,27.1690,-82.9260,1019.97,1111122 
COMPS,ioos:station:USF.COMPS:C10:1,2013-12-06T02:35:00Z,27.1690,-82.9260,1020.13,1111122 
COMPS,ioos:station:USF.COMPS:C10:1,2013-12-06T03:05:00Z,27.1690,-82.9260,1020.16,1111122 
COMPS,ioos:station:USF.COMPS:C10:1,2013-12-06T03:35:00Z,27.1690,-82.9260,1020.22,1111122 
COMPS,ioos:station:USF.COMPS:C10:1,2013-12-06T04:05:00Z,27.1690,-82.9260,1020.02,1111122 
COMPS,ioos:station:USF.COMPS:C10:1,2013-12-06T04:35:00Z,27.1690,-82.9260,1019.85,1111122 
COMPS,ioos:station:USF.COMPS:C10:1,2013-12-06T05:05:00Z,27.1690,-82.9260,1019.92,1111122 
COMPS,ioos:station:USF.COMPS:C10:1,2013-12-06T05:35:00Z,27.1690,-82.9260,1019.74,1111122 
COMPS,ioos:station:USF.COMPS:C10:1,2013-12-06T06:05:00Z,27.1690,-82.9260,1019.59,1111122 
COMPS,ioos:station:USF.COMPS:C10:1,2013-12-06T06:35:00Z,27.1690,-82.9260,1019.51,1111122 
COMPS,ioos:station:USF.COMPS:C10:1,2013-12-06T07:05:00Z,27.1690,-82.9260,1019.45,1111122 
COMPS,ioos:station:USF.COMPS:C10:1,2013-12-06T07:35:00Z,27.1690,-82.9260,1019.39,1111122 
COMPS,ioos:station:USF.COMPS:C10:1,2013-12-06T08:05:00Z,27.1690,-82.9260,1019.37,1111122 
COMPS,ioos:station:USF.COMPS:C10:1,2013-12-06T08:35:00Z,27.1690,-82.9260,1019.42,1111122 
COMPS,ioos:station:USF.COMPS:C10:1,2013-12-06T09:05:00Z,27.1690,-82.9260,1019.4,1111122 
COMPS,ioos:station:USF.COMPS:C10:1,2013-12-06T09:35:00Z,27.1690,-82.9260,1019.45,1111122 
COMPS,ioos:station:USF.COMPS:C10:1,2013-12-06T10:05:00Z,27.1690,-82.9260,1019.64,1111122 
COMPS,ioos:station:USF.COMPS:C10:1,2013-12-06T10:35:00Z,27.1690,-82.9260,1019.85,1111122 
COMPS,ioos:station:USF.COMPS:C10:1,2013-12-06T11:05:00Z,27.1690,-82.9260,1020.03,1111122 
COMPS,ioos:station:USF.COMPS:C10:1,2013-12-06T11:35:00Z,27.1690,-82.9260,1020.38,1111122 
COMPS,ioos:station:USF.COMPS:C10:1,2013-12-06T12:05:00Z,27.1690,-82.9260,1020.6,1111122 
COMPS,ioos:station:USF.COMPS:C10:1,2013-12-06T12:35:00Z,27.1690,-82.9260,1020.84,1111122 
COMPS,ioos:station:USF.COMPS:C10:1,2013-12-06T13:05:00Z,27.1690,-82.9260,1021.0,1111122 
COMPS,ioos:station:USF.COMPS:C10:1,2013-12-06T13:35:00Z,27.1690,-82.9260,1021.27,1111122 
COMPS,ioos:station:USF.COMPS:C10:1,2013-12-06T14:05:00Z,27.1690,-82.9260,1021.57,1111122 
COMPS,ioos:station:USF.COMPS:C10:1,2013-12-06T14:35:00Z,27.1690,-82.9260,1021.68,1111122 
COMPS,ioos:station:USF.COMPS:C10:1,2013-12-06T16:05:00Z,27.1690,-82.9260,1021.28,1111122 
COMPS,ioos:station:USF.COMPS:C10:1,2013-12-06T16:35:00Z,27.1690,-82.9260,1021.16,1111122 
COMPS,ioos:station:USF.COMPS:C10:1,2013-12-06T17:05:00Z,27.1690,-82.9260,1020.88,1111122 
COMPS,ioos:station:USF.COMPS:C10:1,2013-12-06T17:35:00Z,27.1690,-82.9260,1020.74,1111122 
COMPS,ioos:station:USF.COMPS:C10:1,2013-12-06T18:05:00Z,27.1690,-82.9260,1020.52,1111122 
COMPS,ioos:station:USF.COMPS:C10:1,2013-12-06T18:35:00Z,27.1690,-82.9260,1019.95,1111122 
COMPS,ioos:station:USF.COMPS:C10:1,2013-12-06T19:05:00Z,27.1690,-82.9260,1019.65,1111122 
COMPS,ioos:station:USF.COMPS:C10:1,2013-12-06T19:35:00Z,27.1690,-82.9260,1019.41,1111122 
COMPS,ioos:station:USF.COMPS:C10:1,2013-12-06T20:05:00Z,27.1690,-82.9260,1019.28,1111122 
COMPS,ioos:station:USF.COMPS:C10:1,2013-12-06T20:35:00Z,27.1690,-82.9260,1019.37,1111122 
COMPS,ioos:station:USF.COMPS:C10:1,2013-12-06T21:05:00Z,27.1690,-82.9260,1019.68,1111122 
COMPS,ioos:station:USF.COMPS:C10:1,2013-12-06T21:35:00Z,27.1690,-82.9260,1019.78,1111122 
COMPS,ioos:station:USF.COMPS:C10:1,2013-12-06T22:05:00Z,27.1690,-82.9260,1019.94,1111122 
COMPS,ioos:station:USF.COMPS:C10:1,2013-12-06T22:35:00Z,27.1690,-82.9260,1020.16,1111122 
COMPS,ioos:station:USF.COMPS:C10:1,2013-12-06T23:05:00Z,27.1690,-82.9260,1020.43,1111122 
COMPS,ioos:station:USF.COMPS:C10:1,2013-12-06T23:35:00Z,27.1690,-82.9260,1020.7,1111122 
COMPS,ioos:station:USF.COMPS:C10:1,2013-12-07T00:05:00Z,27.1690,-82.9260,1020.7,1111122 
COMPS,ioos:station:USF.COMPS:C10:1,2013-12-07T00:35:00Z,27.1690,-82.9260,1021.0,1111122 
COMPS,ioos:station:USF.COMPS:C10:1,2013-12-07T01:05:00Z,27.1690,-82.9260,1021.31,1111122 
COMPS,ioos:station:USF.COMPS:C10:1,2013-12-07T01:35:00Z,27.1690,-82.9260,1021.36,1111122 
COMPS,ioos:station:USF.COMPS:C10:1,2013-12-07T02:05:00Z,27.1690,-82.9260,1021.46,1111122 
COMPS,ioos:station:USF.COMPS:C10:1,2013-12-07T02:35:00Z,27.1690,-82.9260,1021.59,1111122 
COMPS,ioos:station:USF.COMPS:C10:1,2013-12-07T03:05:00Z,27.1690,-82.9260,1021.81,1111122 
COMPS,ioos:station:USF.COMPS:C10:1,2013-12-07T03:35:00Z,27.1690,-82.9260,1021.93,1111122 
COMPS,ioos:station:USF.COMPS:C10:1,2013-12-07T04:05:00Z,27.1690,-82.9260,1021.92,1111122 
COMPS,ioos:station:USF.COMPS:C10:1,2013-12-07T04:35:00Z,27.1690,-82.9260,1021.96,1111122 
COMPS,ioos:station:USF.COMPS:C10:1,2013-12-07T05:05:00Z,27.1690,-82.9260,1021.87,1111122 
COMPS,ioos:station:USF.COMPS:C10:1,2013-12-07T05:35:00Z,27.1690,-82.9260,1021.85,1111122 
COMPS,ioos:station:USF.COMPS:C10:1,2013-12-07T06:05:00Z,27.1690,-82.9260,1021.69,1111122 
COMPS,ioos:station:USF.COMPS:C10:1,2013-12-07T06:35:00Z,27.1690,-82.9260,1021.68,1111122 
COMPS,ioos:station:USF.COMPS:C10:1,2013-12-07T07:05:00Z,27.1690,-82.9260,1021.42,1111122 
COMPS,ioos:station:USF.COMPS:C10:1,2013-12-07T07:35:00Z,27.1690,-82.9260,1021.42,1111122 
COMPS,ioos:station:USF.COMPS:C10:1,2013-12-07T08:05:00Z,27.1690,-82.9260,1021.3,1111122 
COMPS,ioos:station:USF.COMPS:C10:1,2013-12-07T08:35:00Z,27.1690,-82.9260,1021.37,1111122 
COMPS,ioos:station:USF.COMPS:C10:1,2013-12-07T09:05:00Z,27.1690,-82.9260,1021.45,1111122 
COMPS,ioos:station:USF.COMPS:C10:1,2013-12-07T09:35:00Z,27.1690,-82.9260,1021.47,1111122 
COMPS,ioos:station:USF.COMPS:C10:1,2013-12-07T10:05:00Z,27.1690,-82.9260,1021.64,1111122 
COMPS,ioos:station:USF.COMPS:C10:1,2013-12-07T10:35:00Z,27.1690,-82.9260,1021.73,1111122 
COMPS,ioos:station:USF.COMPS:C10:1,2013-12-07T11:05:00Z,27.1690,-82.9260,1022.02,1111122 
COMPS,ioos:station:USF.COMPS:C10:1,2013-12-07T11:35:00Z,27.1690,-82.9260,1022.35,1111122 
COMPS,ioos:station:USF.COMPS:C10:1,2013-12-12T17:05:00Z,27.1690,-82.9260,1025.13,1111122 
COMPS,ioos:station:USF.COMPS:C10:1,2013-12-12T17:35:00Z,27.1690,-82.9260,1024.64,1111122 
COMPS,ioos:station:USF.COMPS:C10:1,2013-12-12T18:05:00Z,27.1690,-82.9260,1024.22,1111122 
COMPS,ioos:station:USF.COMPS:C10:1,2013-12-12T18:35:00Z,27.1690,-82.9260,1023.72,1111122 
COMPS,ioos:station:USF.COMPS:C10:1,2013-12-12T19:05:00Z,27.1690,-82.9260,1023.18,1111122 
COMPS,ioos:station:USF.COMPS:C10:1,2013-12-12T19:35:00Z,27.1690,-82.9260,1022.99,1111122 
COMPS,ioos:station:USF.COMPS:C10:1,2013-12-12T20:05:00Z,27.1690,-82.9260,1022.77,1111122 
COMPS,ioos:station:USF.COMPS:C10:1,2013-12-12T20:35:00Z,27.1690,-82.9260,1022.91,1111122 
COMPS,ioos:station:USF.COMPS:C10:1,2013-12-12T21:05:00Z,27.1690,-82.9260,1022.71,1111122 
COMPS,ioos:station:USF.COMPS:C10:1,2013-12-12T21:35:00Z,27.1690,-82.9260,1022.69,1111122 
COMPS,ioos:station:USF.COMPS:C10:1,2013-12-12T22:05:00Z,27.1690,-82.9260,1022.78,1111122 
COMPS,ioos:station:USF.COMPS:C10:1,2013-12-12T22:35:00Z,27.1690,-82.9260,1023.02,1111122 
COMPS,ioos:station:USF.COMPS:C10:1,2013-12-12T23:05:00Z,27.1690,-82.9260,1023.3,1111122 
COMPS,ioos:station:USF.COMPS:C10:1,2013-12-12T23:35:00Z,27.1690,-82.9260,1023.68,1111122 
COMPS,ioos:station:USF.COMPS:C10:1,2013-12-13T00:05:00Z,27.1690,-82.9260,1023.88,1111122 
COMPS,ioos:station:USF.COMPS:C10:1,2013-12-13T00:35:00Z,27.1690,-82.9260,1024.09,1111122 
COMPS,ioos:station:USF.COMPS:C10:1,2013-12-13T01:05:00Z,27.1690,-82.9260,1024.65,1111122 
COMPS,ioos:station:USF.COMPS:C10:1,2013-12-13T01:35:00Z,27.1690,-82.9260,1024.96,1111122 
COMPS,ioos:station:USF.COMPS:C10:1,2013-12-13T02:05:00Z,27.1690,-82.9260,1025.25,1111122 
COMPS,ioos:station:USF.COMPS:C10:1,2013-12-13T02:35:00Z,27.1690,-82.9260,1025.44,1111122 
COMPS,ioos:station:USF.COMPS:C10:1,2013-12-13T04:05:00Z,27.1690,-82.9260,1025.64,1111122 
COMPS,ioos:station:USF.COMPS:C10:1,2013-12-13T04:35:00Z,27.1690,-82.9260,1025.54,1111122 
COMPS,ioos:station:USF.COMPS:C10:1,2013-12-13T05:05:00Z,27.1690,-82.9260,1025.04,1111122 
COMPS,ioos:station:USF.COMPS:C10:1,2013-12-13T05:35:00Z,27.1690,-82.9260,1024.84,1111122 
COMPS,ioos:station:USF.COMPS:C10:1,2013-12-13T06:05:00Z,27.1690,-82.9260,1024.47,1111122 
COMPS,ioos:station:USF.COMPS:C10:1,2013-12-13T06:35:00Z,27.1690,-82.9260,1024.35,1111122 
COMPS,ioos:station:USF.COMPS:C10:1,2013-12-13T07:05:00Z,27.1690,-82.9260,1023.96,1111122 
COMPS,ioos:station:USF.COMPS:C10:1,2013-12-13T07:35:00Z,27.1690,-82.9260,1023.61,1111122 
COMPS,ioos:station:USF.COMPS:C10:1,2013-12-13T08:05:00Z,27.1690,-82.9260,1023.38,1111122 
COMPS,ioos:station:USF.COMPS:C10:1,2013-12-13T08:35:00Z,27.1690,-82.9260,1023.19,1111122 
COMPS,ioos:station:USF.COMPS:C10:1,2013-12-13T09:05:00Z,27.1690,-82.9260,1022.9,1111122 
COMPS,ioos:station:USF.COMPS:C10:1,2013-12-13T09:35:00Z,27.1690,-82.9260,1022.24,1111122 
COMPS,ioos:station:USF.COMPS:C10:1,2013-12-13T10:05:00Z,27.1690,-82.9260,1022.15,1111122 
COMPS,ioos:station:USF.COMPS:C10:1,2013-12-13T10:35:00Z,27.1690,-82.9260,1022.22,1111122 
COMPS,ioos:station:USF.COMPS:C10:1,2013-12-13T11:05:00Z,27.1690,-82.9260,1022.36,1111122 
COMPS,ioos:station:USF.COMPS:C10:1,2013-12-13T11:35:00Z,27.1690,-82.9260,1022.6,1111122 
COMPS,ioos:station:USF.COMPS:C10:1,2013-12-13T12:05:00Z,27.1690,-82.9260,1022.68,1111122 
COMPS,ioos:station:USF.COMPS:C10:1,2013-12-13T12:35:00Z,27.1690,-82.9260,1023.01,1111122 
COMPS,ioos:station:USF.COMPS:C10:1,2013-12-13T13:05:00Z,27.1690,-82.9260,1023.36,1111122 
COMPS,ioos:station:USF.COMPS:C10:1,2013-12-13T13:35:00Z,27.1690,-82.9260,1023.82,1111122 
COMPS,ioos:station:USF.COMPS:C10:1,2013-12-13T14:05:00Z,27.1690,-82.9260,1024.12,1111122 
COMPS,ioos:station:USF.COMPS:C10:1,2013-12-13T14:35:00Z,27.1690,-82.9260,1024.39,1111122 
COMPS,ioos:station:USF.COMPS:C10:1,2013-12-13T15:05:00Z,27.1690,-82.9260,1024.54,1111122 
COMPS,ioos:station:USF.COMPS:C10:1,2013-12-13T15:35:00Z,27.1690,-82.9260,1024.36,1111122 
COMPS,ioos:station:USF.COMPS:C10:1,2013-12-13T16:05:00Z,27.1690,-82.9260,1024.12,1111122 
COMPS,ioos:station:USF.COMPS:C10:1,2013-12-13T16:35:00Z,27.1690,-82.9260,1023.61,1111122 
COMPS,ioos:station:USF.COMPS:C10:1,2013-12-13T17:05:00Z,27.1690,-82.9260,1023.11,1111122 
COMPS,ioos:station:USF.COMPS:C10:1,2013-12-13T17:35:00Z,27.1690,-82.9260,1022.68,1111122 
COMPS,ioos:station:USF.COMPS:C10:1,2013-12-13T18:05:00Z,27.1690,-82.9260,1021.97,1111122 
COMPS,ioos:station:USF.COMPS:C10:1,2013-12-13T18:35:00Z,27.1690,-82.9260,1021.54,1111122 
COMPS,ioos:station:USF.COMPS:C10:1,2013-12-13T19:05:00Z,27.1690,-82.9260,1021.21,1111122 
COMPS,ioos:station:USF.COMPS:C10:1,2013-12-13T19:35:00Z,27.1690,-82.9260,1020.7,1111122 
COMPS,ioos:station:USF.COMPS:C10:1,2013-12-13T20:05:00Z,27.1690,-82.9260,1020.48,1111122 
COMPS,ioos:station:USF.COMPS:C10:1,2013-12-13T20:35:00Z,27.1690,-82.9260,1020.2,1111122 
COMPS,ioos:station:USF.COMPS:C10:1,2013-12-13T21:05:00Z,27.1690,-82.9260,1019.91,1111122 
COMPS,ioos:station:USF.COMPS:C10:1,2013-12-13T21:35:00Z,27.1690,-82.9260,1019.92,1111122 
COMPS,ioos:station:USF.COMPS:C10:1,2013-12-13T22:05:00Z,27.1690,-82.9260,1019.65,1111122 
COMPS,ioos:station:USF.COMPS:C10:1,2013-12-13T22:35:00Z,27.1690,-82.9260,1020.03,1111122 
COMPS,ioos:station:USF.COMPS:C10:1,2013-12-13T23:05:00Z,27.1690,-82.9260,1019.88,1111122 
COMPS,ioos:station:USF.COMPS:C10:1,2013-12-13T23:35:00Z,27.1690,-82.9260,1019.02,1111122 
COMPS,ioos:station:USF.COMPS:C10:1,2013-12-14T00:05:00Z,27.1690,-82.9260,1020.04,1111122 
COMPS,ioos:station:USF.COMPS:C10:1,2013-12-14T00:35:00Z,27.1690,-82.9260,1019.56,1111122 
COMPS,ioos:station:USF.COMPS:C10:1,2013-12-14T01:05:00Z,27.1690,-82.9260,1020.18,1111122 
COMPS,ioos:station:USF.COMPS:C10:1,2013-12-14T01:35:00Z,27.1690,-82.9260,1020.23,1111122 
COMPS,ioos:station:USF.COMPS:C10:1,2013-12-14T02:05:00Z,27.1690,-82.9260,1020.19,1111122 
COMPS,ioos:station:USF.COMPS:C10:1,2013-12-14T02:35:00Z,27.1690,-82.9260,1020.12,1111122 
COMPS,ioos:station:USF.COMPS:C10:1,2013-12-14T03:05:00Z,27.1690,-82.9260,1019.8,1111122 
COMPS,ioos:station:USF.COMPS:C10:1,2013-12-14T03:35:00Z,27.1690,-82.9260,1020.01,1111122 
COMPS,ioos:station:USF.COMPS:C10:1,2013-12-14T04:05:00Z,27.1690,-82.9260,1019.84,1111122 
COMPS,ioos:station:USF.COMPS:C10:1,2013-12-14T04:35:00Z,27.1690,-82.9260,1019.62,1111122 
COMPS,ioos:station:USF.COMPS:C10:1,2013-12-14T05:05:00Z,27.1690,-82.9260,1019.13,1111122 
COMPS,ioos:station:USF.COMPS:C10:1,2013-12-14T05:35:00Z,27.1690,-82.9260,1019.08,1111122 
COMPS,ioos:station:USF.COMPS:C10:1,2013-12-14T06:05:00Z,27.1690,-82.9260,1018.77,1111122 
COMPS,ioos:station:USF.COMPS:C10:1,2013-12-14T06:35:00Z,27.1690,-82.9260,1018.79,1111122 
COMPS,ioos:station:USF.COMPS:C10:1,2013-12-14T07:05:00Z,27.1690,-82.9260,1018.44,1111122 
COMPS,ioos:station:USF.COMPS:C10:1,2013-12-14T07:35:00Z,27.1690,-82.9260,1018.09,1111122 
COMPS,ioos:station:USF.COMPS:C10:1,2013-12-14T08:05:00Z,27.1690,-82.9260,1017.8,1111122 
COMPS,ioos:station:USF.COMPS:C10:1,2013-12-14T08:35:00Z,27.1690,-82.9260,1017.35,1111122 
COMPS,ioos:station:USF.COMPS:C10:1,2013-12-14T10:05:00Z,27.1690,-82.9260,1017.21,1111122 
COMPS,ioos:station:USF.COMPS:C10:1,2013-12-14T10:35:00Z,27.1690,-82.9260,1017.09,1111122 
COMPS,ioos:station:USF.COMPS:C10:1,2013-12-14T11:05:00Z,27.1690,-82.9260,1017.23,1111122 
COMPS,ioos:station:USF.COMPS:C10:1,2013-12-14T11:35:00Z,27.1690,-82.9260,1017.28,1111122 
COMPS,ioos:station:USF.COMPS:C10:1,2013-12-14T13:05:00Z,27.1690,-82.9260,1018.02,1111122 
COMPS,ioos:station:USF.COMPS:C10:1,2013-12-14T13:35:00Z,27.1690,-82.9260,1018.24,1111122 
COMPS,ioos:station:USF.COMPS:C10:1,2013-12-14T14:05:00Z,27.1690,-82.9260,1018.39,1111122 
COMPS,ioos:station:USF.COMPS:C10:1,2013-12-14T14:35:00Z,27.1690,-82.9260,1018.67,1111122 
COMPS,ioos:station:USF.COMPS:C10:1,2013-12-14T15:05:00Z,27.1690,-82.9260,1018.64,1111122 
COMPS,ioos:station:USF.COMPS:C10:1,2013-12-14T15:35:00Z,27.1690,-82.9260,1018.33,1111122 
COMPS,ioos:station:USF.COMPS:C10:1,2013-12-14T16:05:00Z,27.1690,-82.9260,1018.08,1111122 
COMPS,ioos:station:USF.COMPS:C10:1,2013-12-14T16:35:00Z,27.1690,-82.9260,1017.65,1111122 
COMPS,ioos:station:USF.COMPS:C10:1,2013-12-14T17:05:00Z,27.1690,-82.9260,1017.12,1111122 
COMPS,ioos:station:USF.COMPS:C10:1,2013-12-14T17:35:00Z,27.1690,-82.9260,1016.5,1111122 
COMPS,ioos:station:USF.COMPS:C10:1,2013-12-14T18:05:00Z,27.1690,-82.9260,1016.1,1111122 
COMPS,ioos:station:USF.COMPS:C10:1,2013-12-14T18:35:00Z,27.1690,-82.9260,1015.62,1111122 
COMPS,ioos:station:USF.COMPS:C10:1,2013-12-14T19:05:00Z,27.1690,-82.9260,1015.14,1111122 
COMPS,ioos:station:USF.COMPS:C10:1,2013-12-14T19:35:00Z,27.1690,-82.9260,1014.97,1111122 
COMPS,ioos:station:USF.COMPS:C10:1,2013-12-14T20:05:00Z,27.1690,-82.9260,1015.16,1111122 
COMPS,ioos:station:USF.COMPS:C10:1,2013-12-14T20:35:00Z,27.1690,-82.9260,1015.02,1111122 
COMPS,ioos:station:USF.COMPS:C10:1,2013-12-14T21:05:00Z,27.1690,-82.9260,1015.16,1111122 
COMPS,ioos:station:USF.COMPS:C10:1,2013-12-14T21:35:00Z,27.1690,-82.9260,1015.35,1111122 
COMPS,ioos:station:USF.COMPS:C10:1,2013-12-14T22:05:00Z,27.1690,-82.9260,1015.31,1111122 
COMPS,ioos:station:USF.COMPS:C10:1,2013-12-14T22:35:00Z,27.1690,-82.9260,1015.37,1111122 
COMPS,ioos:station:USF.COMPS:C10:1,2013-12-14T23:05:00Z,27.1690,-82.9260,1015.16,1111122 
COMPS,ioos:station:USF.COMPS:C10:1,2013-12-14T23:35:00Z,27.1690,-82.9260,1015.23,1111122 
COMPS,ioos:station:USF.COMPS:C10:1,2013-12-15T00:05:00Z,27.1690,-82.9260,1015.45,1111122 
COMPS,ioos:station:USF.COMPS:C10:1,2013-12-15T00:35:00Z,27.1690,-82.9260,1015.5,1111122 
COMPS,ioos:station:USF.COMPS:C10:1,2013-12-15T01:05:00Z,27.1690,-82.9260,1015.48,1111122 
COMPS,ioos:station:USF.COMPS:C10:1,2013-12-15T01:35:00Z,27.1690,-82.9260,1015.5,1111122 
COMPS,ioos:station:USF.COMPS:C10:1,2013-12-15T02:05:00Z,27.1690,-82.9260,1015.32,1111122 
COMPS,ioos:station:USF.COMPS:C10:1,2013-12-15T02:35:00Z,27.1690,-82.9260,1015.07,1111122 
COMPS,ioos:station:USF.COMPS:C10:1,2013-12-15T03:05:00Z,27.1690,-82.9260,1015.21,1111122 
COMPS,ioos:station:USF.COMPS:C10:1,2013-12-15T03:35:00Z,27.1690,-82.9260,1015.35,1111122 
COMPS,ioos:station:USF.COMPS:C10:1,2013-12-15T04:05:00Z,27.1690,-82.9260,1015.15,1111122 
COMPS,ioos:station:USF.COMPS:C10:1,2013-12-15T04:35:00Z,27.1690,-82.9260,1015.14,1111122 
COMPS,ioos:station:USF.COMPS:C10:1,2013-12-15T05:05:00Z,27.1690,-82.9260,1014.96,1111122 
COMPS,ioos:station:USF.COMPS:C10:1,2013-12-15T05:35:00Z,27.1690,-82.9260,1014.83,1111122 
COMPS,ioos:station:USF.COMPS:C10:1,2013-12-15T06:05:00Z,27.1690,-82.9260,1014.52,1111122 
COMPS,ioos:station:USF.COMPS:C10:1,2013-12-15T06:35:00Z,27.1690,-82.9260,1014.54,1111122 
COMPS,ioos:station:USF.COMPS:C10:1,2013-12-15T07:05:00Z,27.1690,-82.9260,1013.9,1111122 
COMPS,ioos:station:USF.COMPS:C10:1,2013-12-15T07:35:00Z,27.1690,-82.9260,1013.8,1111122 
COMPS,ioos:station:USF.COMPS:C10:1,2013-12-15T08:05:00Z,27.1690,-82.9260,1013.84,1111122 
COMPS,ioos:station:USF.COMPS:C10:1,2013-12-15T08:35:00Z,27.1690,-82.9260,1013.63,1111122 
COMPS,ioos:station:USF.COMPS:C10:1,2013-12-15T09:05:00Z,27.1690,-82.9260,1013.39,1111122 
COMPS,ioos:station:USF.COMPS:C10:1,2013-12-15T09:35:00Z,27.1690,-82.9260,1013.65,1111122 
COMPS,ioos:station:USF.COMPS:C10:1,2013-12-15T10:05:00Z,27.1690,-82.9260,1013.46,1111122 
COMPS,ioos:station:USF.COMPS:C10:1,2013-12-15T10:35:00Z,27.1690,-82.9260,1013.9,1111122 
COMPS,ioos:station:USF.COMPS:C10:1,2013-12-15T11:05:00Z,27.1690,-82.9260,1013.7,1111122 
COMPS,ioos:station:USF.COMPS:C10:1,2013-12-15T11:35:00Z,27.1690,-82.9260,1013.79,1111122 
COMPS,ioos:station:USF.COMPS:C10:1,2013-12-15T12:05:00Z,27.1690,-82.9260,1014.21,1111122 
COMPS,ioos:station:USF.COMPS:C10:1,2013-12-15T12:35:00Z,27.1690,-82.9260,1014.78,1111122 
COMPS,ioos:station:USF.COMPS:C10:1,2013-12-15T13:05:00Z,27.1690,-82.9260,1015.17,1111122 
COMPS,ioos:station:USF.COMPS:C10:1,2013-12-15T13:35:00Z,27.1690,-82.9260,1015.55,1111122 
COMPS,ioos:station:USF.COMPS:C10:1,2013-12-15T14:05:00Z,27.1690,-82.9260,1016.41,1111122 
COMPS,ioos:station:USF.COMPS:C10:1,2013-12-15T14:35:00Z,27.1690,-82.9260,1016.79,1111122 
COMPS,ioos:station:USF.COMPS:C10:1,2013-12-18T18:05:00Z,27.1690,-82.9260,1024.67,1111122 
COMPS,ioos:station:USF.COMPS:C10:1,2013-12-18T18:35:00Z,27.1690,-82.9260,1024.16,1111122 
COMPS,ioos:station:USF.COMPS:C10:1,2013-12-18T19:05:00Z,27.1690,-82.9260,1023.82,1111122 
COMPS,ioos:station:USF.COMPS:C10:1,2013-12-18T19:35:00Z,27.1690,-82.9260,1023.69,1111122 